FW0959 Weather Reports


Display with metric or nautical units.
time (UTC)temp
F
wind
direction
speed
MPH
gust
MPH
rain 1hr
in
rain 24hr
in
rain mn
in
humidity
%
barometer
mb
20260505100328 45 157 0.0 0.0 0.00 0.00 0.00 87 1019.2
20260505095426 45 157 0.0 0.0 0.00 0.00 0.00 87 1019.2
20260505094427 45 157 0.0 0.0 0.00 0.00 0.00 85 1019.0
20260505093527 45 157 0.0 0.0 0.00 0.00 0.00 84 1018.8
20260505092527 46 157 0.0 0.0 0.00 0.00 0.00 84 1019.0
20260505092429 46 157 0.0 0.0 0.00 0.00 0.00 84 1019.0
20260505091429 47 157 0.0 0.0 0.00 0.00 0.00 84 1018.9
20260505090527 48 157 0.0 1.0 0.00 0.00 0.00 83 1018.9
20260505085527 48 202 0.0 0.0 0.00 0.00 0.00 84 1018.9
20260505084528 48 202 0.0 0.0 0.00 0.00 0.00 84 1019.0
20260505083528 48 202 0.0 2.0 0.00 0.00 0.00 83 1019.0
20260505082527 48 202 0.0 0.0 0.00 0.00 0.00 83 1018.8
20260505081528 48 202 0.0 0.0 0.00 0.00 0.00 82 1018.8
20260505080529 49 202 0.0 1.0 0.00 0.00 0.00 82 1018.9
20260505075529 49 201 0.0 2.0 0.00 0.00 0.00 81 1018.7
20260505074529 49 225 0.0 0.0 0.00 0.00 0.00 81 1018.8
20260505073528 49 211 0.0 1.0 0.00 0.00 0.00 80 1018.8
20260505072527 49 202 0.0 0.0 0.00 0.00 0.00 80 1018.8
20260505071528 50 202 0.0 0.0 0.00 0.00 0.00 79 1019.0
20260505070529 50 202 0.0 1.0 0.00 0.00 0.00 78 1019.0
20260505065528 51 157 0.0 0.0 0.00 0.00 0.00 77 1019.0
20260505064627 51 186 0.0 1.0 0.00 0.00 0.00 77 1019.1
20260505063629 52 157 0.0 0.0 0.00 0.00 0.00 77 1019.2
20260505062629 52 22 0.0 0.0 0.00 0.00 0.00 78 1019.3
20260505062530 52 22 0.0 0.0 0.00 0.00 0.00 78 1019.3
20260505061627 52 22 0.0 0.0 0.00 0.00 0.00 77 1019.5
20260505055727 51 22 0.0 0.0 0.00 0.00 0.00 77 1019.2
20260505054727 52 22 0.0 1.0 0.00 0.00 0.00 75 1019.4
20260505052829 53 22 0.0 0.0 0.00 0.00 0.00 71 1019.2
20260505051827 55 22 0.0 1.0 0.00 0.00 0.00 68 1019.4
20260505050829 56 22 0.0 0.0 0.00 0.00 0.00 67 1019.5
20260505040729 56 22 0.0 0.0 0.00 0.00 0.00 65 1019.5
20260505035746 57 22 0.0 0.0 0.00 0.00 0.00 64 1019.6
20260505034845 57 22 2.0 3.0 0.00 0.00 0.00 64 1019.8
20260505033944 57 22 0.0 1.0 0.00 0.00 0.00 64 1019.8
20260505032947 58 22 0.0 0.0 0.00 0.00 0.00 62 1019.8
20260505032044 58 22 1.0 3.0 0.00 0.00 0.00 61 1019.9
20260505031044 58 22 0.0 1.0 0.00 0.00 0.00 61 1019.9
20260505030045 59 22 1.0 2.0 0.00 0.00 0.00 60 1019.8
20260505025945 59 22 1.0 1.0 0.00 0.00 0.00 60 1019.8
20260505024944 59 22 1.0 1.0 0.00 0.00 0.00 60 1019.8
20260505023944 59 22 1.0 3.0 0.00 0.00 0.00 60 1019.6
20260505022946 59 22 1.0 2.0 0.00 0.00 0.00 60 1019.5
20260505021946 59 22 2.0 3.0 0.00 0.00 0.00 59 1019.8
20260505021844 59 22 1.0 2.0 0.00 0.00 0.00 59 1019.7
20260505015948 59 22 2.0 4.0 0.00 0.00 0.00 60 1019.5
20260505014946 60 22 1.0 2.0 0.00 0.00 0.00 60 1019.5
20260505014844 60 22 1.0 2.0 0.00 0.00 0.00 60 1019.5
20260505012946 60 22 1.0 1.0 0.00 0.00 0.00 59 1019.2
20260505011944 60 22 1.0 2.0 0.00 0.00 0.00 59 1019.2
20260505010945 60 22 0.0 1.0 0.00 0.00 0.00 58 1019.1
20260505010044 61 22 0.0 1.0 0.00 0.00 0.00 57 1019.0
20260505004045 62 342 0.0 1.0 0.00 0.00 0.00 56 1019.0
20260505003044 62 247 0.0 0.0 0.00 0.00 0.00 56 1018.8
20260505002046 63 247 0.0 0.0 0.00 0.00 0.00 55 1018.8
20260505001144 64 247 0.0 0.0 0.00 0.00 0.00 54 1018.8
20260505001044 64 247 0.0 0.0 0.00 0.00 0.00 54 1018.8
20260505000946 64 247 0.0 0.0 0.00 0.00 0.00 54 1018.8
20260504235945 65 247 0.0 0.0 0.00 0.00 0.00 52 1018.7
20260504234945 66 247 0.0 0.0 0.00 0.00 0.00 51 1018.7
20260504234044 66 247 0.0 0.0 0.00 0.00 0.00 48 1018.6
20260504233044 67 247 0.0 0.0 0.00 0.00 0.00 46 1018.4
20260504232046 67 247 2.0 4.0 0.00 0.00 0.00 46 1018.4
20260504231044 68 247 1.0 2.0 0.00 0.00 0.00 45 1018.3
20260504230045 68 247 0.0 2.0 0.00 0.00 0.00 45 1018.2
20260504225945 68 247 1.0 2.0 0.00 0.00 0.00 45 1018.2
20260504224944 69 292 1.0 2.0 0.00 0.00 0.00 44 1018.2
20260504223946 69 270 1.0 3.0 0.00 0.00 0.00 44 1018.2
20260504222946 69 292 0.0 2.0 0.00 0.00 0.00 43 1018.2
20260504221944 69 292 5.0 7.0 0.00 0.00 0.00 42 1018.2
20260504220945 70 235 2.0 4.0 0.00 0.00 0.00 41 1018.2
20260504215046 71 305 0.0 1.0 0.00 0.00 0.00 40 1018.1
20260504214144 71 202 1.0 2.0 0.00 0.00 0.00 40 1018.3
20260504213145 72 292 3.0 4.0 0.00 0.00 0.00 40 1018.1
20260504212243 73 292 2.0 2.0 0.00 0.00 0.00 40 1017.9
20260504212144 73 292 2.0 4.0 0.00 0.00 0.00 40 1017.9
20260504211145 73 247 1.0 2.0 0.00 0.00 0.00 39 1017.9
20260504210144 74 175 0.0 1.0 0.00 0.00 0.00 37 1017.8
20260504205145 74 245 2.0 3.0 0.00 0.00 0.00 37 1017.9
20260504204145 74 245 2.0 4.0 0.00 0.00 0.00 37 1017.8
20260504202244 74 247 2.0 3.0 0.00 0.00 0.00 36 1017.8
20260504201245 74 247 1.0 2.0 0.00 0.00 0.00 35 1018.0
20260504200246 75 292 1.0 5.0 0.00 0.00 0.00 35 1017.9
20260504195145 75 267 2.0 5.0 0.00 0.00 0.00 35 1018.1
20260504194146 74 240 1.0 2.0 0.00 0.00 0.00 35 1018.3
20260504193145 76 247 2.0 3.0 0.00 0.00 0.00 34 1018.5
20260504192245 76 246 2.0 3.0 0.00 0.00 0.00 35 1018.5
20260504191243 74 247 0.0 1.0 0.00 0.00 0.00 35 1018.6
20260504190247 75 287 3.0 5.0 0.00 0.00 0.00 34 1018.7
20260504185345 75 247 1.0 2.0 0.00 0.00 0.00 33 1018.8
20260504184345 75 225 1.0 3.0 0.00 0.00 0.00 32 1018.8
20260504183346 76 258 0.0 1.0 0.00 0.00 0.00 31 1018.8
20260504182443 75 197 3.0 6.0 0.00 0.00 0.00 30 1018.9
20260504180447 77 158 0.0 2.0 0.00 0.00 0.00 26 1019.0
20260504174446 77 247 0.0 0.0 0.00 0.00 0.00 27 1019.1
20260504173446 76 202 0.0 2.0 0.00 0.00 0.00 30 1019.5
20260504172446 74 157 0.0 0.0 0.00 0.00 0.00 30 1019.5
20260504171444 73 202 0.0 0.0 0.00 0.00 0.00 32 1019.7
20260504170446 72 253 1.0 2.0 0.00 0.00 0.00 34 1020.0
20260504150744 53 22 1.0 1.0 0.00 0.00 0.00 82 1021.5
20260504140847 46 202 0.0 0.0 0.00 0.00 0.00 91 1021.6